Weather History for PASC - October, 2012

Change the Weather History Date:

Saturday, October 6, 2012

  Actual Average Record
Temperature  
Mean Temperature 38 °F -  
Max Temperature 45 °F 24 °F 45 °F (2012)
Min Temperature 33 °F 15 °F -2 °F (2007)
Degree Days  
Heating Degree Days 27    
Moisture  
Dew Point 31 °F    
Average Humidity 77    
Maximum Humidity 85    
Minimum Humidity 68    
Precipitation  
Precipitation 0.00 in - - ()
Sea Level Pressure  
Sea Level Pressure 29.89 in    
Wind  
Wind Speed 10 mph (SW)    
Max Wind Speed 14 mph    
Max Gust Speed -    
Visibility 10 miles    
Events      
Averages and records for this station are not official NWS values.
T = Trace of Precipitation, MM = Missing Value Source: NWS Daily Summary

Daily Weather History Graph

Daily Weather History Graph

Search for Another Location

Airport or City:

Trip Planner

Search our weather history database for the weather conditions in past years. The results will help you decide how hot, cold, wet, or windy it might be!

Date:

Astronomy

Oct. 06, 2012 Rise Set
Actual Time 8:33 AM AKDT 6:48 PM AKDT
Civil Twilight 7:31 AM AKDT 7:49 PM AKDT
Nautical Twilight 6:19 AM AKDT 9:01 PM AKDT
Astronomical Twilight 4:58 AM AKDT 10:20 PM AKDT
Moon No Moon Rise No Moon Set
Length of Visible Light 12h 18m
Length of Day
10h 15m
Waning Gibbous, 64% of the Moon is Illuminated
Oct 6
Waning Gibbous
Oct 7
Last Quarter
Oct 15
New
Oct 21
First Quarter
Oct 29
Full

Hourly Weather History & Observations

Time (AKDT) Temp. Windchill Dew Point Humidity Pressure Visibility Wind Dir Wind Speed Gust Speed Precip Events Conditions
12:53 AM 34.0 °F 26.0 °F 28.0 °F 79% 29.86 in 10.0 mi SSW 10.4 mph - N/A   Clear
1:53 AM 35.1 °F 26.4 °F 28.0 °F 76% 29.86 in 10.0 mi SSW 12.7 mph - N/A   Clear
2:53 AM 34.0 °F 25.0 °F 28.0 °F 79% 29.86 in 10.0 mi SSW 12.7 mph - N/A   Clear
3:53 AM 34.0 °F 27.2 °F 28.0 °F 79% 29.85 in 10.0 mi SSW 8.1 mph - N/A   Scattered Clouds
4:53 AM 33.1 °F 27.7 °F 28.0 °F 82% 29.84 in 10.0 mi SSW 5.8 mph - N/A   Scattered Clouds
5:53 AM 36.0 °F 29.6 °F 28.9 °F 76% 29.83 in 10.0 mi SSW 8.1 mph - N/A   Overcast
6:53 AM 34.0 °F 27.2 °F 28.9 °F 82% 29.83 in 10.0 mi SSW 8.1 mph - N/A   Overcast
7:53 AM 33.1 °F 26.9 °F 28.9 °F 85% 29.83 in 10.0 mi SW 6.9 mph - N/A   Mostly Cloudy
8:53 AM 34.0 °F 28.0 °F 30.0 °F 85% 29.83 in 10.0 mi SSW 6.9 mph - N/A   Mostly Cloudy
9:53 AM 37.0 °F 31.0 °F 30.9 °F 79% 29.84 in 10.0 mi SSW 8.1 mph - N/A   Mostly Cloudy
10:53 AM 39.0 °F 32.3 °F 30.9 °F 73% 29.85 in 10.0 mi SSW 10.4 mph - N/A   Mostly Cloudy
11:53 AM 39.9 °F 32.5 °F 30.9 °F 70% 29.85 in 10.0 mi SSW 12.7 mph - N/A   Mostly Cloudy
12:53 PM 39.0 °F 32.3 °F 32.0 °F 76% 29.86 in 10.0 mi SSW 10.4 mph - N/A   Mostly Cloudy
1:53 PM 41.0 °F 34.3 °F 33.1 °F 73% 29.87 in 10.0 mi SSW 11.5 mph - N/A   Overcast
2:53 PM 43.0 °F 36.8 °F 33.1 °F 68% 29.88 in 10.0 mi SSW 11.5 mph - N/A   Mostly Cloudy
3:53 PM 42.1 °F 36.1 °F 34.0 °F 73% 29.90 in 10.0 mi SW 10.4 mph - N/A   Mostly Cloudy
4:53 PM 42.1 °F 36.1 °F 34.0 °F 73% 29.91 in 10.0 mi WSW 10.4 mph - N/A   Mostly Cloudy
5:53 PM 41.0 °F 35.2 °F 34.0 °F 76% 29.94 in 10.0 mi WSW 9.2 mph - N/A   Overcast
6:53 PM 37.9 °F 31.5 °F 32.0 °F 79% 29.95 in 10.0 mi SW 9.2 mph - N/A   Overcast
7:53 PM 37.9 °F 30.9 °F 33.1 °F 83% 29.96 in 10.0 mi SSW 10.4 mph - N/A   Overcast
8:53 PM 39.0 °F 32.3 °F 32.0 °F 76% 29.98 in 10.0 mi WSW 10.4 mph - 0.00 in   Overcast
9:53 PM 36.0 °F 29.0 °F 30.0 °F 79% 30.00 in 10.0 mi SW 9.2 mph - N/A   Partly Cloudy
10:53 PM 36.0 °F 28.5 °F 30.0 °F 79% 30.01 in 10.0 mi WSW 10.4 mph - N/A   Mostly Cloudy
11:53 PM 37.9 °F 29.6 °F 30.0 °F 73% 30.03 in 10.0 mi SW 13.8 mph - N/A   Overcast